Tampa, FL

7:55 PM EST on February 19, 2017 (GMT -0500)
Tampa International

Weather History for KTPA - November, 2014

Change the Weather History Date:

Sunday, November 16, 2014

  Actual Average Record
Temperature  
Mean Temperature 69 °F 69 °F  
Max Temperature 81 °F 78 °F 88 °F (1958)
Min Temperature 57 °F 60 °F 31 °F (1940)
Degree Days  
Heating Degree Days 0 1  
Month to date heating degree days 29 14  
Since 1 July heating degree days 29 18  
Cooling Degree Days 4 5  
Month to date cooling degree days 32 103  
Year to date cooling degree days 3382 3469  
Growing Degree Days 19 (Base 50)    
Moisture  
Dew Point 60 °F    
Average Humidity 76    
Maximum Humidity 93    
Minimum Humidity 58    
Precipitation  
Precipitation 0.00 in 0.05 in 2.30 in (1951)
Month to date precipitation 0.57 0.82  
Year to date precipitation 51.61 43.10  
Sea Level Pressure  
Sea Level Pressure 30.13 in    
Wind  
Wind Speed 5 mph (East)    
Max Wind Speed 12 mph    
Max Gust Speed 15 mph    
Visibility 7 miles    
Events      
T = Trace of Precipitation, MM = Missing Value Source: NWS Daily Summary

Daily Weather History Graph

Daily Weather History Graph

Search for Another Location

Airport or City:

Trip Planner

Search our weather history database for the weather conditions in past years. The results will help you decide how hot, cold, wet, or windy it might be!

Date:

Astronomy

Nov. 16, 2014 Rise Set
Actual Time 6:52 AM EST 5:37 PM EST
Civil Twilight 6:27 AM EST 6:01 PM EST
Nautical Twilight 5:59 AM EST 6:30 PM EST
Astronomical Twilight 5:31 AM EST 6:58 PM EST
Moon 1:27 AM EST (11/16) 2:02 PM EST (11/16)
Length of Visible Light 11h 34m
Length of Day
10h 44m
Waning Crescent, 31% of the Moon is Illuminated
Nov 16
Waning Crescent
Nov 22
New
Nov 29
First Quarter
Dec 6
Full
Dec 14
Last Quarter

Hourly Weather History & Observations

Time (EST) Temp. Heat Index Dew Point Humidity Pressure Visibility Wind Dir Wind Speed Gust Speed Precip Events Conditions
12:53 AM 60.1 °F - 55.9 °F 86% 30.20 in 7.0 mi NE 8.1 mph - N/A   Scattered Clouds
1:53 AM 59.0 °F - 55.0 °F 87% 30.18 in 7.0 mi NE 6.9 mph - N/A   Partly Cloudy
2:53 AM 57.9 °F - 55.0 °F 90% 30.17 in 7.0 mi NE 5.8 mph - N/A   Clear
3:22 AM 57.9 °F - 55.0 °F 90% 30.17 in 6.0 mi NE 5.8 mph - N/A   Scattered Clouds
3:34 AM 57.9 °F - 55.0 °F 90% 30.16 in 0.2 mi NE 4.6 mph - N/A   Mostly Cloudy
3:53 AM 57.0 °F - 55.9 °F 96% 30.16 in 0.2 mi NE 4.6 mph - N/A   Overcast
4:53 AM 57.0 °F - 55.9 °F 96% 30.16 in 0.2 mi ENE 4.6 mph - N/A   Overcast
5:00 AM 57.0 °F - 55.9 °F 96% 30.16 in 1.0 mi Variable 3.5 mph - N/A   Mostly Cloudy
5:53 AM 57.9 °F - 55.9 °F 93% 30.17 in 1.0 mi NE 4.6 mph - N/A   Mostly Cloudy
6:53 AM 57.9 °F - 55.9 °F 93% 30.19 in 1.0 mi ENE 4.6 mph - N/A   Overcast
7:53 AM 59.0 °F - 57.0 °F 93% 30.20 in 1.0 mi ENE 4.6 mph - N/A   Overcast
8:07 AM 60.1 °F - 57.9 °F 93% 30.21 in 5.0 mi Calm Calm - N/A   Scattered Clouds
8:53 AM 64.0 °F - 59.0 °F 84% 30.21 in 10.0 mi ENE 4.6 mph - N/A   Partly Cloudy
9:53 AM 68.0 °F - 60.1 °F 76% 30.22 in 10.0 mi ESE 4.6 mph - N/A   Mostly Cloudy
10:53 AM 73.0 °F - 62.1 °F 68% 30.19 in 10.0 mi Variable 6.9 mph - N/A   Scattered Clouds
11:53 AM 77.0 °F - 63.0 °F 62% 30.16 in 10.0 mi SE 8.1 mph - N/A   Partly Cloudy
12:53 PM 79.0 °F - 63.0 °F 58% 30.11 in 10.0 mi SSE 6.9 mph - N/A   Partly Cloudy
1:53 PM 77.0 °F - 64.9 °F 66% 30.08 in 10.0 mi SW 4.6 mph - N/A   Scattered Clouds
2:53 PM 80.1 °F 81.9 °F 64.9 °F 60% 30.06 in 10.0 mi SSW 6.9 mph - N/A   Scattered Clouds
3:53 PM 79.0 °F - 64.0 °F 60% 30.06 in 10.0 mi South 8.1 mph - N/A   Scattered Clouds
4:53 PM 75.9 °F - 64.9 °F 69% 30.06 in 10.0 mi SW 5.8 mph - N/A   Scattered Clouds
5:53 PM 73.0 °F - 64.0 °F 73% 30.08 in 10.0 mi SW 3.5 mph - N/A   Partly Cloudy
6:53 PM 71.1 °F - 64.0 °F 78% 30.07 in 10.0 mi Calm Calm - N/A   Partly Cloudy
7:53 PM 72.0 °F - 64.0 °F 76% 30.08 in 10.0 mi Calm Calm - N/A   Partly Cloudy
8:53 PM 71.1 °F - 64.0 °F 78% 30.08 in 10.0 mi Calm Calm - N/A   Scattered Clouds
9:53 PM 71.1 °F - 64.9 °F 81% 30.07 in 10.0 mi SE 3.5 mph - N/A   Partly Cloudy
10:53 PM 71.1 °F - 64.0 °F 78% 30.06 in 10.0 mi Calm Calm - N/A   Scattered Clouds
11:53 PM 71.1 °F - 64.9 °F 81% 30.04 in 10.0 mi SE 4.6 mph - N/A   Mostly Cloudy